www.pogodaiklimat.ru

Погода и климат >> Архив погоды >> Россия >> Краснодарский край >> Красная Поляна


ПОГОДА в Красной Поляне

  • Прогноз погоды в Красной Поляне
  • Монитор погоды в Красной Поляне
  • Климат города

АРХИВ ПОГОДЫ в Красной Поляне

Время (UTC), дата Ветер
(напр.,м/с)
 
Видим.   Явления Облачность Т
(С)
Тd
(С)
f
(%)
Тe
(С)
Тes
(С)
Комфортность P
(гПа)
Po
(гПа)
Тmin
(С)
Tmax
(С)
R
(мм)
R24
(мм)
S
(см)
18 19.06 ЮВ 1 20 км {ливн. осадки} 10/8 1000 м
[Sc Ac cuf Cs]
+15.7 +15.1 96 +16 +16 1007.8 943.3
21 19.06 СВ 2 13 км слабый ливневой дождь 10/8 180 м
[Cb cap Ac cuf]
+15.4 +14.9 97 +15 +15 1008.3 943.7
00 20.06 В 1 13 км слабый ливневой дождь 10/10 270 м
[Cb cap]
+14.6 +14.6 100 +15 +15 1007.1 942.4
03 20.06 штиль 0 9000 м слабый ливневой дождь 10/10 1170 м
[Cb cap]
+14.5 +14.5 100 +14 +14 1006.5 941.9 +14.4 9
06 20.06 штиль 0 15 км слабый ливневой дождь 10/10 120 м
[Cb cap]
+14.8 +14.8 100 +14 +14 1007.3 942.7
09 20.06 З 1 5000 м слабый ливневой дождь 10/10 600 м
[Cb cap]
+15.5 +15.5 100 +16 +16 1008.3 943.8
12 20.06 штиль 0 20 км {ливн. осадки} 10/10 270 м
[Sc]
+18.6 +15.7 83 +19 +19 1007.5 943.7
15 20.06 З 1 11 км слабый ливневой дождь 10/10 600 м
[Cb cap]
+15.9 +15.6 98 +17 +17 1009.1 944.6 +19.2 25
18 20.06 штиль 0 17 км {ливн. осадки} 10/10 1000 м
[Sc]
+15.2 +15.2 100 +15 +15 1010.2 945.5
21 20.06 штиль 0 20 км 10/10 800 м
[Sc]
+15.0 +14.7 98 +15 +15 1010.7 945.9
00 21.06 СВ 1 20 км 10/8 1000 м
[Sc Ac As]
+14.2 +14.2 100 +14 +14 1010.5 945.5
03 21.06 штиль 0 20 км 9/9 360 м
[Sc]
+14.0 +14.0 100 +13 +14 1010.8 945.8 +13.1 0.1
06 21.06 ЮЗ 1 20 км 9/9 600 м
[Cu Sc]
+17.9 +14.4 80 +19 +20 1009.6 945.5
09 21.06 ЮЗ 2 20 км 10/9 600 м
[Cb cap Ac As]
+22.5 +14.9 62 +26 +27 жарко 1008.2 945.1
12 21.06 ЮЗ 3
{10}
20 км 9/8 600 м
[Cu Sc Ac As]
+21.3 +15.4 69 +24 +26 комфорт 1008.9 945.6
15 21.06 ЮЗ 2 20 км 9/6 1000 м
[Sc Ac As]
+18.4 +15.5 83 +19 +20 1009.9 945.9 +22.7
18 21.06 штиль 0 20 км 10/10 700 м
[Sc]
+16.4 +15.4 94 +16 +16 1011.4 946.9
21 21.06 С 1 20 км 10/10 540 м
[Sc]
+16.3 +14.8 91 +17 +17 1011.6 947.0
00 22.06 ЮВ 1 20 км 10/10 660 м
[Sc]
+15.5 +13.3 87 +16 +16 1012.0 947.2
03 22.06 В 1 20 км ясно +14.5 +12.7 89 +15 +16 1012.5 947.4 +14.0
06 22.06 Ю 1 20 км 6/4 1000 м
[Sc diur, vesp Ac As]
+20.3 +13.0 63 +24 +29 комфорт 1011.1 947.4
09 22.06 ЮЗ 3 20 км 8/8 1300 м
[Sc diur, vesp]
+20.5 +14.6 69 +23 +27 комфорт 1011.5 947.8
12 22.06 С 2 8000 м гроза, ливневой дождь 10/10 600 м
[Cb calv]
+16.8 +15.2 90 +17 +17 1013.4 948.8
15 22.06 штиль 0 20 км {гроза, ливн. осадки} 8/4 1000 м
[Sc diur, vesp Ac As]
+21.2 +15.1 68 +24 +25 комфорт 1012.3 948.7 +22.2 5
18 22.06 С 1 20 км {гроза, ливн. осадки} 3/0
[Ac As]
+16.5 +15.5 94 +17 +17 1014.6 949.9
21 22.06 СВ 2 20 км 10/10 960 м
[Sc diur, vesp]
+16.1 +14.1 88 +16 +16 1015.4 950.5
00 23.06 В 1 20 км 10/10 570 м
[Sc]
+15.5 +14.5 94 +16 +16 1015.7 950.7
03 23.06 С 1 20 км 4/3 1500 м
[Cu Sc Ac As]
+14.9 +14.6 98 +15 +16 1016.0 950.8 +14.7
06 23.06 ЮЗ 1 20 км 10/8 600 м
[Cu med, cong Ac cast Cs]
+19.0 +13.8 72 +21 +23 комфорт 1015.7 951.4
09 23.06 З 2 20 км 9/8 600 м
[Cu med, cong Ac cuf]
+21.1 +14.7 67 +24 +26 комфорт 1015.4 951.6
12 23.06 З 2 20 км 8/4 1000 м
[Cu med, cong Ac As Ci fib]
+21.0 +15.3 70 +25 +30 комфорт 1015.0 951.2
15 23.06 З 2 20 км 8/6 1000 м
[Cu hum Ac cuf]
+20.0 +15.2 74 +23 +24 комфорт 1015.1 951.1 +22.4
18 23.06 СВ 1 10 км 6/3 1000 м
[Sc Ac cuf Ci fib]
+17.4 +14.3 82 +18 +18 1016.0 951.4
21 23.06 СВ 2 20 км 4/0
[Cs]
+14.5 +12.9 90 +14 +14 1017.1 951.7
00 24.06 С 1 20 км ясно +13.4 +12.3 93 +14 +14 1016.4 950.8
03 24.06 СВ 1 20 км 4/0
[Ci sp]
+13.1 +11.3 89 +13 +14 1016.3 950.6 +12.3
06 24.06 ЮЗ 1 19 км 8/0
[Ac As Cc]
+18.0 +11.8 67 +19 +26 1014.2 949.7
09 24.06 ЮЗ 2 20 км ясно +24.8 +11.7 44 +26 +46 жарко 1011.3 948.4
12 24.06 ЮЗ 2 20 км 3/1 1500 м
[Cu hum Ac As Cc]
+26.0 +13.2 45 +28 +39 жарко 1010.3 947.8
15 24.06 З 2 20 км ясно +22.8 +12.1 51 +25 +28 комфорт 1010.8 947.6 +26.6
18 24.06 С 1 16 км 10/8 1000 м
[Sc Ac As]
+19.0 +12.0 64 +21 +21 комфорт 1012.5 948.4
21 24.06 С 2 19 км слабый ливневой дождь 10/10 1000 м
[Cb cap]
+15.4 +14.1 92 +15 +15 1014.6 949.6
00 25.06 С 2 20 км {ливн. осадки} 10/10 1000 м
[Sc]
+14.8 +13.5 92 +14 +14 1014.6 949.5
03 25.06 штиль 0 20 км 10/10 1500 м
[Sc]
+14.8 +13.8 94 +14 +14 1014.9 949.8 +14.3 1
06 25.06 Ю 1 17 км в посл. час ливневой дождь 10/10 50 м
[Cb cap]
+15.0 +15.0 100 +15 +15 1016.7 951.5
09 25.06 штиль 0 20 км 10/10 1500 м
[Sc diur, vesp]
+17.5 +15.0 85 +17 +17 1017.2 952.5
12 25.06 ЮВ 1 20 км 8/6 1000 м
[Sc Ac As]
+21.4 +13.6 61 +24 +28 комфорт 1015.6 951.8
15 25.06 З 2 20 км 4/4 1000 м
[Sc diur, vesp]
+21.8 +15.4 67 +25 +27 комфорт 1015.2 951.6 +23.8 0.2
18 25.06 С 1 20 км ясно +16.9 +14.2 84 +18 +18 1017.4 952.6
21 25.06 С 1 20 км ясно +15.1 +13.6 91 +16 +16 1018.0 952.7
00 26.06 СВ 1 20 км ясно +14.0 +12.9 93 +14 +14 1017.9 952.4
03 26.06 штиль 0 20 км ясно +14.2 +12.6 90 +14 +15 1017.4 951.9 +12.8
06 26.06 ЮЗ 2 20 км ясно +20.0 +13.7 67 +23 +34 комфорт 1014.9 950.9
09 26.06 ЮЗ 2 20 км 1/1 1500 м
[Cu hum]
+25.0 +15.1 54 +28 +45 жарко 1012.6 949.8
12 26.06 ЮЗ 3 20 км ясно +27.4 +17.0 53 +31 +43 душно 1010.5 948.3
15 26.06 З 1 20 км ясно +26.1 +16.4 55 +30 +32 душно 1010.0 947.6 +28.0

 

Местоположение метеостанции Красная Поляна (Краснодарский край, Россия): широта 43.68 долгота 40.20 высота над уровнем моря 567 м.

В архиве по умолчанию представлена погода в Красной Поляне за последнюю неделю. Архивные данные за месяц целиком и за предыдущие месяцы, начиная с января 2011 года, Вы можете получить, выбрав интересующий диапазон дат из раскрывающегося списка и нажав кнопку "Ввод!".

Внимание! Время в таблицах - всемирное. Для получения местного времени необходимо прибавить поправку, которая в Красной Поляне равна 3 ч.

Смотрите также архив погоды в соседних городах и на ближайших метеорологических станциях:

Погода в Кепше (Краснодарский край, Россия) (14 км)
Погода в Гузерипле (Адыгея, Россия) (36 км)
Погода в Сочи (Краснодарский край, Россия) (36 км)
Погода в Сочи аэропорту (Адлер) (Краснодарский край, Россия) (37 км)
Погода в Псебае (Краснодарский край, Россия) (68 км)
Погода в Шунтуке (Адыгея, Россия) (88 км)
Погода в Горном (Краснодарский край, Россия) (100 км)
Погода в Туапсе (Краснодарский край, Россия) (102 км)
Погода в Майкопе (Адыгея, Россия) (105 км)
Погода в Зеленчукской (Карачаево-Черкессия, Россия) (112 км)

Пояснения к столбцам:

Ветер - указаны скорость ветра в м/с - средняя за 10 мин, порывы в срок и между сроками (в фигурных скобках) и направление, откуда дует ветер: С - северный, СВ - северо-восточный, В - восточный, ЮВ - юго-восточный, Ю - южный, ЮЗ - юго-западный, З - западный, СЗ - северо-западный.
Видимость - горизонтальная дальность видимости в метрах или километрах. При видимости от 1 до 10 км при отсутствии осадков обычно наблюдается дымка, при ухудшении видимости до 1 км и менее - туман. В сухую погоду видимость может ухудшаться дымом, пылью или мглою.
Явления - указаны атмосферные явления, наблюдавшиеся в срок или в последний час перед сроком; фигурными скобками обозначены явления, наблюдавшиеся между сроками (за 1-3 часа до срока); квадратными скобками обозначены град или гололедные отложения с указанием их диаметра в мм.
Облачность - указаны через наклонную черту общая и нижняя облачность в баллах и высота нижней границы облаков в метрах; квадратными скобками обозначены формы облаков: Ci - перистые, Cs - перисто-слоистые, Cc - перисто-кучевые, Ac - высококучевые, As - высокослоистые, Sc - слоисто-кучевые, Ns - слоисто-дождевые, Cu - кучевые, Cb - кучево-дождевые. Подробнее классификацию облаков см. в Атласе облаков (PDF).
T - Температура воздуха - температура, измеренная на высоте 2 м над землей.
Td - Температура точки росы - температура, при понижении до которой содержащийся в воздухе водяной пар достигнет насыщения.
f - Относительная влажность воздуха - влажноcть воздуха, измеренная на высоте 2 м над землей.
Te - Эффективная температура - температура, которую ощущает одетый по сезону человек в тени. Характеристика душности погоды. При расчете учитывается влияние влажности воздуха и скорости ветра на теплоощущения человека.
Tes - Эффективная температура на солнце - температура, которую ощущает человек, с поправкой на солнечный нагрев. Характеристика знойности погоды. Зависит от высоты солнца над горизонтом, облачности и скорости ветра. Ночью, в пасмурную погоду, а также при ветре 12 м/с и более поправка равна нулю.
P - Атмосферное давление - приведенное к уровню моря атмосферное давление.
Po - Атмосферное давление - измеренное на уровне метеостанции атмосферное давление.
Tmin - Минимальная температура - минимум температуры воздуха на высоте 2 м над землей.
Tmax - Максимальная температура - максимум температуры воздуха на высоте 2 м над землей.
R - Количество осадков - Количество выпавших осадков за период времени, мм. При наведении курсора мыши на число - период времени, за который выпало указанное количество осадков.
R24 - Количество осадков - Количество выпавших осадков за 24 часа, мм.
S - Снежный покров - Высота снежного покрова, см. При наведении курсора мыши на число - состояние снежного покрова и степень покрытия местности в баллах.